Showing default

MUSAT2, 59099

Orbit data source: Space-Track

MUSAT2, 59099 is a payload satellite owned by Muon Space (US) in SSO that was launched on Mon, 04 Mar 2024 UTC via an FALCON 9 launch vehicle from the Air Force Western Test Range (AFWTR). Payload-class satellites include a variety of spacecraft equipped with specific instruments for various scientific and technological missions. These include communications satellites like Starlink; space stations such as the ISS; scientific satellites like the Hubble; Earth observation satellites from companies like Planet Labs, Umbra, and HawkEye 360; GPS; miniature CubeSats for education and research; and military/defense satellites.

Loading next visibility...
Identifier
59099, 2024-043B
Orbit
SSO
Country
Flag of USUS
Related business
Manufacturer
Muon Space
Mission
Operational Commercial Imaging
Bus & Motor
MUON, Unknown motor
Mass
67 kg wet, 67 kg dry
Launch date (UTC)
2024-03-04 (2 years ago)
Launch vehicle
FALCON 9
Launch site
Air Force Western Test Range (AFWTR)
Object type
Payload
Rocket body
Debris
Shape & HBR
Box, 1.0 m
Radar Cross Section
0.195 m², Medium (>0.1 m² and < 1m²)

Expand to show TLE details & history
Last TLE update: 13 hours ago

TLE from 13 hours ago
0 MUSAT2
1 59099U 24043B   26235.62879972  .00005193  00000-0  32959-3 0  9992
2 59099  97.8679  15.9269 0008413 104.4782 255.7380 15.09317255135269
Epoch: 2026-08-23T15:05Z
TLE epoch observation values (Epoch: 2026-08-23T15:05:28.295Z)
Latitude
-0.00004°
Longitude
177.63689°
Altitude
542.786 km
Speed
7.59 km/s
True Right ascension
01h 03m 42s
True Declination
0° 00' 00"
Sunlit
Object was in full shadow at epoch
Visualization orbit readout
Latitude
Unknown
Longitude
Unknown
Altitude
Unknown
Speed
Unknown
Apparent Right ascension
Unknown
Apparent Declination
Unknown
Sunlit
N/A
Visualization observer readout
Local Sidereal Time
19:33:47
Azimuth
Unknown
Elevation
Unknown
Doppler factor
Unknown
Orbital elements
Apogee altitude
541.102 km
Perigee altitude
529.469 km
Semi-major axis
6,913.422 km
Eccentricity
0.00084
Inclination
97.8679°
RAAN
15.9269°
Arg. of periapsis
104.4782°
True anomaly
255.64459°
Mean anomaly
255.738°
Eccentric anomaly
255.69129°
Mean motion
3.77575 °/min
Orbital period
95.35 mins
BSTAR
0.00032959
Loading maneuver chart data...
Computing Atmospheric mass density...
Loading historical data...
Loading historical data...
Loading historical data...
Loading historical data...
Loading historical data...
Loading historical data...
Loading historical data...

Documentation

Showing up to 5 results
|